Retour au catalogue

DELTA 1 DEB

YO

LostHEO
NORAD 37762·DEBRIS·🇺🇸 United States

Lancé Jan 26, 1978 depuis Cape Canaveral Space Force Station

Loading…

Prochains Passages (prochaines 24 heures)

TLE

PériméSource: Space-Track

Époque: Jul 19, 2026, 11:12 UTC

1 37762U 78012E   26200.46694288  .00001695  00000-0  46659-3 0  9994
2 37762  29.4883 175.8071 6093562 212.4695  88.3197  3.88813075193811

Suivez DELTA 1 DEB en temps réel avec AllMySat

Download on the App Store